Location: Hauppauge
(40.8260°N, 73.2030°W)
Time: 06:20:20
(UTC-04:00)

Daily predictions for brighter satellites

Satellite Brightness Start Highest point End
(mag) Time Altitude Azimuth Time Altitude Azimuth Time Altitude Azimuth
Nadezhda 1 Rocket 4.3 20:35:15 10° SSE 20:41:20 50° E 20:47:28 10° NNE
Cosmos 2112 Rocket 4.0 20:37:57 10° SSW 20:43:09 78° ESE 20:48:21 10° NNE
Cosmos 192 4.3 20:42:00 10° S 20:46:52 70° ESE 20:51:45 10° NNE
Cosmos 1437 4.3 20:43:51 10° SSW 20:46:54 39° WNW 20:49:58 10° N
Helios 1A 3.0 20:43:38 10° SSE 20:47:48 67° ENE 20:51:59 10° N
Spot 2 Rocket 4.2 20:43:26 10° S 20:48:23 56° W 20:53:21 10° NNW
Cosmos 405 Rocket 3.1 20:47:53 10° SSW 20:51:38 66° W 20:55:30 10° N
Cosmos 921 Rocket 4.4 20:52:48 10° N 20:56:31 25° ENE 21:00:10 10° ESE
SL-27 R/B 2.8 20:53:07 10° SSW 20:56:45 73° WNW 21:00:25 10° NNE
Cosmos 1441 Rocket 3.1 20:54:08 10° S 20:57:51 73° E 21:01:35 10° NNE
Cosmos 2154 Rocket 4.4 20:54:51 10° N 21:01:02 50° ENE 21:07:09 10° SSE
H-2A R/B 3.9 20:58:27 10° E 21:01:13 15° ENE 21:04:01 10° NNE
Tiangong 2 1.5 20:59:31 10° W 21:02:41 63° N 21:05:51 10° ENE
Helios 1B rocket 2.4 20:58:42 10° NNE 21:02:51 86° ESE 21:07:00 10° SSW
H-2A R/B 4.5 13:32:13 10° SW 21:04:31 45° SW 21:12:02 11° SE
Cosmos 1680 Rocket 4.3 20:59:57 10° SSW 21:05:04 57° WNW 21:10:13 10° NNE
Aureole 1 Rocket 3.3 21:04:16 10° SW 21:07:21 46° WNW 21:10:15 10° N
Meteor 1-23 Rocket 4.2 21:01:53 10° S 21:07:24 69° E 21:13:00 10° NNE
Cosmos 967 Rocket 4.5 21:02:14 10° SSW 21:08:22 61° ESE 21:14:33 10° NE
Cosmos 2056 Rocket 3.7 21:04:38 10° N 21:09:42 54° ENE 21:14:19 12° SE
Envisat 3.3 21:05:41 10° S 21:10:44 68° WSW 21:15:49 10° NNW
SAR-Lupe-4 3.9 21:12:15 10° S 21:15:49 66° W 21:19:24 10° NNW
Cosmos 1892 Rocket 4.2 21:12:04 10° SSE 21:16:07 36° E 21:20:10 10° NNE
Lacrosse 5 rocket 4.4 21:14:57 10° N 21:16:21 11° N 21:17:45 10° NNE
Cosmos 2082 Rocket 3.0 21:11:28 10° SSE 21:16:23 31° ESE 21:21:18 10° NE
Cosmos 2278 4.2 21:13:09 10° NNW 21:18:41 49° ENE 21:23:15 15° SE
Terra 4.0 21:18:17 10° ENE 21:19:30 11° ENE 21:20:42 10° NE
Okean 1-7 Rocket 3.8 21:18:34 10° SSW 21:23:01 77° W 21:27:33 10° N
YAOGAN 6 2.5 21:19:55 11° SSE 21:23:18 89° WSW 21:26:50 10° NNW
Okean 2 3.3 21:21:43 10° S 21:25:46 78° E 21:29:52 10° N
Cosmos 1606 Rocket 3.6 21:22:50 10° N 21:27:07 61° E 21:30:36 15° SSE
SPOT 5 3.4 21:28:06 17° SE 21:30:54 37° ENE 21:34:56 10° N
Cosmos 1025 Rocket 3.3 21:26:52 10° SSW 21:31:07 69° W 21:35:22 10° N
CZ-4B DEB 4.1 21:29:19 10° SSW 21:32:05 34° W 21:34:51 10° NNW
Meteor 1-15 Rocket 4.2 21:26:58 10° N 21:32:35 88° W 21:38:01 11° S
Cosmos 1656 4.2 21:28:04 10° NNW 21:33:18 44° ENE 21:37:02 18° SE
Cosmos 1697 Rocket 3.7 21:29:08 10° N 21:34:12 33° ENE 21:37:54 16° ESE
MOS 1-B Rocket 4.1 21:29:12 14° SSE 21:34:12 66° ENE 21:40:46 10° N
Cosmos 1726 Rocket 3.5 21:31:45 10° N 21:36:03 64° E 21:39:07 18° SSE
Cosmos 2341 Rocket 4.1 21:30:40 10° N 21:37:01 70° E 21:42:28 15° SSE
Cosmos 405 4.3 21:34:32 10° NNW 21:37:53 39° W 21:41:11 10° SSW
Cosmos 2369 3.8 21:33:36 10° NNW 21:39:20 71° ENE 21:43:25 20° SSE
SL-08 RB Rocket 4.3 21:38:11 20° SE 21:40:46 40° ENE 21:44:58 10° N
COSMOS 2487 2.4 21:37:55 10° S 21:41:27 67° ESE 21:45:00 10° NNE
Cosmos 1452 Rocket 4.1 21:36:26 10° N 21:41:28 43° ENE 21:44:39 21° SE
MetOp-A 4.1 21:41:22 17° SSE 21:45:36 80° ENE 21:50:59 10° NNW
ERS-1 Rocket 3.1 21:41:26 14° S 21:45:50 76° WSW 21:50:54 10° NNW
USA 245 2.8 21:47:12 35° E 21:47:23 36° ENE 21:49:32 10° N
Cosmos 1833 Rocket 2.8 21:43:48 10° S 21:49:15 55° ESE 21:54:45 10° NNE
SPOT 1/Viking Rocket 3.9 21:49:30 23° SE 21:52:30 49° ENE 21:57:27 10° N
ISS -0.8 21:50:06 10° WNW 21:52:32 19° NNW 21:54:58 10° NNE
OAO 2 Rocket 4.2 21:48:30 10° WSW 21:52:49 31° SSW 21:54:39 24° SSE
Cosmos 2058 Rocket 3.0 21:51:29 10° N 21:55:56 78° E 21:58:30 25° SSE
Iridium 43 3.8 21:58:50 10° N 22:00:46 52° NE 22:00:46 52° NE
YAOGAN 11 4.1 22:02:03 25° S 22:04:29 82° WSW 22:08:52 10° NNW
Cosmos 1295 Rocket 4.5 21:58:27 10° N 22:04:41 87° W 22:09:16 20° S
Cosmos 1271 Rocket 4.4 22:01:52 10° NNE 22:04:46 19° ENE 22:05:23 19° E
Cosmos 2181 Rocket 4.1 21:58:50 10° S 22:05:12 85° W 22:11:31 10° N
Cosmos 1437 Rocket 4.2 22:02:48 10° NNW 22:06:19 34° W 22:09:19 13° SSW
USA 229 DEB 4.5 22:00:42 10° NNW 22:07:33 46° NE 22:12:17 20° ESE
USA 229 4.5 22:00:49 10° NNW 22:07:38 45° NE 22:12:23 20° ESE
Cosmos 1066 Rocket 4.1 22:06:48 19° S 22:10:45 75° E 22:16:25 10° NNE
H-2A R/B 3.2 22:11:41 26° ESE 22:13:06 31° ENE 22:17:06 10° N
Cosmos 1812 Rocket 4.4 22:11:05 10° N 22:15:15 37° ENE 22:16:19 32° ESE
Cosmos 158 Rocket 4.3 22:19:00 33° SSE 22:20:54 48° ESE 22:26:03 10° NNE
Cosmos 1626 Rocket 3.4 22:21:47 40° SSE 22:23:13 70° E 22:27:31 10° NNE
Cosmos 1980 Rocket 2.7 22:18:01 10° NNW 22:23:30 48° ENE 22:25:49 31° ESE
ARGOS 3.5 22:20:51 23° S 22:24:10 62° WSW 22:29:34 10° NNW
Cosmos 2228 3.9 22:29:48 10° NNW 22:33:53 44° W 22:35:49 26° SSW
TELKOM 3 4.5 22:32:03 10° WNW 22:33:54 38° WSW 22:33:54 38° WSW
CZ-4B R/B 4.3 22:30:18 10° NE 22:34:53 32° E 22:35:16 32° ESE
Cosmos 2322 Rocket 3.8 22:30:31 10° N 22:35:04 24° NE 22:37:39 18° E
Cosmos 1953 3.9 22:32:05 10° NNE 22:35:20 22° ENE 22:35:24 22° ENE
Tiangong 2 1.4 22:36:25 10° WNW 22:39:21 67° NNW 22:39:21 67° NNW
H-2A R/B 2.1 22:38:01 36° S 22:40:01 68° WSW 22:45:05 10° NNW
SL-8 Rocket 4.3 22:34:16 10° NNW 22:40:27 62° W 22:44:11 25° SSW
Landsat 7 3.7 22:40:01 46° S 22:41:28 86° WSW 22:46:15 10° NNW
Cosmos 1766 3.1 22:38:25 10° N 22:42:20 74° E 22:42:35 70° ESE
Meteor 1-21 4.2 22:41:29 39° SSE 22:43:37 70° E 22:49:21 10° NNE
Cosmos 2366 rocket 4.0 22:41:15 10° N 22:47:24 74° W 22:50:17 33° S
Terra 1.7 22:55:30 57° S 22:56:30 87° WSW 23:01:17 10° NNW
Lacrosse 5 rocket 3.5 22:53:14 10° NNW 22:57:05 25° NNE 22:59:32 17° ENE
Meteor 1-4 Rocket 3.9 22:54:41 10° NNW 22:57:49 29° W 22:58:16 28° WSW
Cosmos 1602 Rocket 4.3 22:57:24 32° SW 22:59:00 47° W 23:03:12 10° N
Cosmos 2082 Rocket 3.6 22:55:06 10° SW 23:00:20 37° WNW 23:05:35 10° N
Meteor 2-8 Rocket 4.5 23:01:41 46° SSE 23:03:21 64° E 23:09:26 10° NNE
Cosmos 1269 Rocket 4.2 23:01:07 30° SW 23:03:45 68° WNW 23:09:04 10° NNE
Cosmos 1048 Rocket 4.5 23:08:12 26° SW 23:10:54 56° WNW 23:16:01 10° N
Cosmos 1805 3.3 23:07:07 10° N 23:10:42 74° N 23:10:42 74° N
deb Chang Zheng 4 3.7 23:09:35 10° N 23:13:53 69° WNW 23:14:27 60° WSW
Cosmos 1331 Rocket 4.3 23:09:00 10° N 23:14:02 49° ENE 23:14:46 46° E
Cosmos 1110 Rocket 4.1 23:12:45 10° NNW 23:17:58 62° ENE 23:18:39 56° ESE
Cosmos 1697 Rocket 3.7 23:13:05 10° NW 23:18:07 35° WSW 23:19:38 30° SW
Cosmos 1758 3.4 23:14:30 10° N 23:18:04 69° NNE 23:18:04 69° NNE
Cosmos 389 Rocket 3.5 23:16:03 10° N 23:18:31 42° NNE 23:18:31 42° NNE
Spot 4 3.6 23:21:37 76° SSE 23:22:00 88° E 23:26:51 10° NNW
USA 267 3.7 23:17:18 10° ENE 23:22:58 40° ESE 23:22:58 40° ESE
CARTOSAT-1 4.4 23:24:03 39° WSW 23:24:22 40° W 23:28:27 10° NNW
Lacrosse 5 2.3 23:25:30 47° E 23:25:30 47° E 23:29:25 10° NE
Cosmos 2360 4.3 23:21:28 10° NNW 23:27:06 62° WSW 23:28:04 54° SSW
SL-16 R/B 2.4 23:22:55 10° NNW 23:28:32 58° ENE 23:29:33 50° ESE
ISS -0.5 23:28:27 10° NNW 23:30:01 13° N 23:31:35 10° NNE
Cosmos 1934 Rocket 4.1 23:24:28 10° N 23:30:47 61° E 23:32:02 51° SE
NOSS 3-1 (C) 4.1 23:23:55 10° NNW 23:31:31 71° NE 23:34:52 39° SE
SeaSat 1 4.1 23:30:49 21° E 23:32:20 25° NE 23:36:17 10° N
CZ-2C R/B 4.2 23:33:01 32° E 23:34:04 34° ENE 23:39:09 10° N
DELTA 2 DEB (DPAF) 4.1 23:34:36 77° W 23:34:36 77° W 23:39:01 10° NNW
ATLAS CENTAUR R/B 2.2 23:35:49 10° NNW 23:38:30 41° N 23:38:30 41° N
Cosmos 1271 Rocket 4.4 23:37:26 10° NNW 23:40:35 27° W 23:40:35 27° W
CZ-4C R/B 4.3 23:45:30 39° NW 23:45:30 39° NW 23:48:03 10° NNW
Cosmos 1758 Rocket 3.9 23:47:43 60° WNW 23:47:43 60° WNW 23:51:48 10° N
Cosmos 2251 Rocket 3.4 23:47:57 79° SSW 23:48:17 89° ESE 23:53:43 10° NNE
H-2A R/B 3.8 23:48:48 25° WSW 23:49:04 25° W 23:52:48 10° NW
Cosmos 1733 4.1 23:45:52 10° N 23:48:41 47° N 23:48:41 47° N
